Beaufort, SC

5:48 PM EDT on March 28, 2017 (GMT -0400)
Beaufort

Weather History for KARW - February, 2014

Change the Weather History Date:

Tuesday, February 11, 2014

  Actual Average (KNBC) Record (KNBC)
Temperature  
Mean Temperature 43 °F -  
Max Temperature 51 °F 60 °F 78 °F (2017)
Min Temperature 35 °F 38 °F 30 °F (2016)
Degree Days  
Heating Degree Days 22    
Moisture  
Dew Point 40 °F    
Average Humidity 89    
Maximum Humidity 100    
Minimum Humidity 76    
Precipitation  
Precipitation 0.00 in - - ()
Sea Level Pressure  
Sea Level Pressure 30.19 in    
Wind  
Wind Speed 13 mph (NNE)    
Max Wind Speed 21 mph    
Max Gust Speed 25 mph    
Visibility 9 miles    
Events Rain    
Averages and records for this station are not official NWS values.
T = Trace of Precipitation, MM = Missing Value Source: NWS Daily Summary

Daily Weather History Graph

Daily Weather History Graph

Search for Another Location

Airport or City:

Trip Planner

Search our weather history database for the weather conditions in past years. The results will help you decide how hot, cold, wet, or windy it might be!

Date:

Astronomy

Feb. 11, 2014 Rise Set
Actual Time 7:08 AM EST 6:04 PM EST
Civil Twilight 6:43 AM EST 6:30 PM EST
Nautical Twilight 6:14 AM EST 6:59 PM EST
Astronomical Twilight 5:46 AM EST 7:27 PM EST
Moon 3:28 PM EST (2/11) 4:40 AM EST (2/11)
Length of Visible Light 11h 46m
Length of Day
10h 56m
Waxing Gibbous, 90% of the Moon is Illuminated
Feb 11
Waxing Gibbous
Feb 14
Full
Feb 22
Last Quarter
Mar 1
New
Mar 8
First Quarter

Hourly Weather History & Observations

Time (EST) Temp. Windchill Dew Point Humidity Pressure Visibility Wind Dir Wind Speed Gust Speed Precip Events Conditions
12:15 AM 51.8 °F - 50.0 °F 94% 30.10 in 10.0 mi NE 8.1 mph - N/A   Overcast
12:35 AM 51.8 °F - 48.2 °F 88% 30.10 in 10.0 mi NE 9.2 mph - N/A   Overcast
12:55 AM 51.8 °F - 48.2 °F 88% 30.10 in 10.0 mi NE 11.5 mph - N/A   Overcast
1:15 AM 51.8 °F - 48.2 °F 88% 30.09 in 10.0 mi NE 12.7 mph - N/A   Overcast
1:35 AM 51.8 °F - 46.4 °F 82% 30.09 in 10.0 mi ENE 11.5 mph - N/A   Overcast
1:55 AM 50.0 °F - 46.4 °F 87% 30.09 in 10.0 mi NE 13.8 mph 19.6 mph N/A   Overcast
2:15 AM 50.0 °F - 46.4 °F 87% 30.09 in 10.0 mi NE 11.5 mph - N/A   Overcast
2:35 AM 50.0 °F - 46.4 °F 87% 30.10 in 10.0 mi NNE 11.5 mph 17.3 mph N/A   Overcast
2:55 AM 50.0 °F - 44.6 °F 82% 30.10 in 10.0 mi NE 10.4 mph 18.4 mph N/A   Mostly Cloudy
3:15 AM 50.0 °F - 44.6 °F 82% 30.10 in 10.0 mi NE 12.7 mph - N/A   Overcast
3:35 AM 50.0 °F - 44.6 °F 82% 30.10 in 10.0 mi NE 13.8 mph 17.3 mph N/A   Overcast
3:55 AM 50.0 °F - 44.6 °F 82% 30.10 in 10.0 mi NE 13.8 mph - N/A   Mostly Cloudy
4:15 AM 48.2 °F - 44.6 °F 87% 30.10 in 10.0 mi NE 11.5 mph 19.6 mph N/A   Mostly Cloudy
4:35 AM 48.2 °F - 42.8 °F 82% 30.11 in 10.0 mi NE 15.0 mph - N/A   Mostly Cloudy
4:55 AM 48.2 °F - 42.8 °F 82% 30.11 in 10.0 mi NE 12.7 mph - N/A   Overcast
5:15 AM 48.2 °F - 42.8 °F 82% 30.12 in 10.0 mi NNE 12.7 mph - N/A   Overcast
5:35 AM 48.2 °F - 42.8 °F 82% 30.13 in 10.0 mi NNE 17.3 mph - N/A   Overcast
5:55 AM 46.4 °F 39.8 °F 41.0 °F 81% 30.14 in 10.0 mi NNE 16.1 mph - N/A   Overcast
6:15 AM 46.4 °F 40.1 °F 41.0 °F 81% 30.14 in 10.0 mi NE 15.0 mph 18.4 mph N/A   Overcast
6:35 AM 46.4 °F 41.9 °F 39.2 °F 76% 30.15 in 10.0 mi North 9.2 mph - N/A   Overcast
6:55 AM 46.4 °F 40.4 °F 39.2 °F 76% 30.16 in 10.0 mi North 13.8 mph - N/A   Overcast
7:15 AM 44.6 °F 37.8 °F 39.2 °F 81% 30.16 in 10.0 mi NNE 15.0 mph - N/A   Overcast
7:35 AM 44.6 °F 37.8 °F 41.0 °F 87% 30.17 in 10.0 mi NNE 15.0 mph 20.7 mph N/A   Overcast
7:55 AM 44.6 °F 38.4 °F 41.0 °F 87% 30.17 in 10.0 mi NNE 12.7 mph 18.4 mph N/A   Overcast
8:15 AM 42.8 °F 34.5 °F 41.0 °F 93% 30.18 in 10.0 mi NNE 18.4 mph - N/A   Overcast
8:35 AM 42.8 °F 35.1 °F 39.2 °F 87% 30.19 in 10.0 mi NE 16.1 mph 20.7 mph N/A   Overcast
8:55 AM 42.8 °F 35.4 °F 37.4 °F 81% 30.21 in 10.0 mi NE 15.0 mph 18.4 mph N/A   Overcast
9:15 AM 42.8 °F 36.2 °F 39.2 °F 87% 30.20 in 10.0 mi NNE 12.7 mph - N/A   Drizzle
9:35 AM 42.8 °F 35.8 °F 39.2 °F 87% 30.21 in 10.0 mi NE 13.8 mph - N/A   Light Drizzle
9:55 AM 42.8 °F 35.1 °F 41.0 °F 93% 30.22 in 5.0 mi NNE 16.1 mph - N/A   Overcast
10:15 AM 42.8 °F 35.4 °F 41.0 °F 93% 30.23 in 5.0 mi NNE 15.0 mph - N/A   Overcast
10:35 AM 42.8 °F 35.4 °F 41.0 °F 93% 30.23 in 7.0 mi NE 15.0 mph 18.4 mph N/A   Overcast
10:55 AM 42.8 °F 35.1 °F 41.0 °F 93% 30.23 in 10.0 mi NNE 16.1 mph - N/A   Overcast
11:15 AM 42.8 °F 36.6 °F 41.0 °F 93% 30.23 in 7.0 mi NE 11.5 mph - N/A   Overcast
11:35 AM 42.8 °F 35.4 °F 41.0 °F 93% 30.23 in 10.0 mi NNE 15.0 mph - N/A   Light Drizzle
11:55 AM 42.8 °F 35.4 °F 41.0 °F 93% 30.21 in 7.0 mi NNE 15.0 mph - N/A   Overcast
12:15 PM 42.8 °F 35.4 °F 41.0 °F 93% 30.21 in 10.0 mi NNE 15.0 mph - N/A   Overcast
12:35 PM 42.8 °F 35.8 °F 39.2 °F 87% 30.21 in 10.0 mi NE 13.8 mph - N/A   Overcast
12:55 PM 42.8 °F 36.2 °F 41.0 °F 93% 30.21 in 10.0 mi NNE 12.7 mph - N/A   Overcast
1:15 PM 42.8 °F 35.4 °F 39.2 °F 87% 30.20 in 7.0 mi NNE 15.0 mph - N/A   Overcast
1:35 PM 42.8 °F 36.2 °F 39.2 °F 87% 30.20 in 10.0 mi NNE 12.7 mph - N/A   Overcast
1:55 PM 42.8 °F 35.8 °F 39.2 °F 87% 30.20 in 10.0 mi NNE 13.8 mph 18.4 mph N/A   Overcast
2:15 PM 42.8 °F 35.8 °F 39.2 °F 87% 30.20 in 10.0 mi NNE 13.8 mph - N/A   Overcast
2:35 PM 41.0 °F 33.5 °F 37.4 °F 87% 30.20 in 7.0 mi NNE 13.8 mph - N/A   Overcast
2:55 PM 41.0 °F 33.9 °F 37.4 °F 87% 30.19 in 7.0 mi North 12.7 mph - N/A   Overcast
3:15 PM 41.0 °F 33.5 °F 37.4 °F 87% 30.19 in 10.0 mi NNE 13.8 mph 19.6 mph N/A   Overcast
3:35 PM 41.0 °F 32.2 °F 37.4 °F 87% 30.19 in 10.0 mi NE 18.4 mph - N/A   Overcast
3:55 PM 41.0 °F 33.1 °F 37.4 °F 87% 30.20 in 10.0 mi NNE 15.0 mph - N/A   Overcast
4:15 PM 41.0 °F 32.8 °F 37.4 °F 87% 30.21 in 5.0 mi NNE 16.1 mph - N/A   Overcast
4:35 PM 41.0 °F 32.5 °F 37.4 °F 87% 30.20 in 5.0 mi NE 17.3 mph 21.9 mph N/A   Overcast
4:55 PM 41.0 °F 32.8 °F 37.4 °F 87% 30.21 in 7.0 mi NNE 16.1 mph - N/A   Overcast
5:15 PM 39.2 °F 29.8 °F 37.4 °F 93% 30.22 in 10.0 mi NE 18.4 mph 24.2 mph N/A   Overcast
5:35 PM 39.2 °F 29.8 °F 35.6 °F 87% 30.22 in 7.0 mi NE 18.4 mph 23.0 mph N/A   Overcast
5:55 PM 39.2 °F 30.8 °F 37.4 °F 93% 30.23 in 7.0 mi NNE 15.0 mph - N/A   Overcast
6:35 PM 39.2 °F 31.2 °F 37.4 °F 93% 30.24 in 10.0 mi NNE 13.8 mph - N/A   Overcast
6:55 PM 39.2 °F 30.2 °F 37.4 °F 93% 30.25 in 10.0 mi NNE 17.3 mph - N/A   Overcast
7:15 PM 37.4 °F 28.9 °F 35.6 °F 93% 30.26 in 10.0 mi NNE 13.8 mph 18.4 mph N/A   Overcast
7:35 PM 37.4 °F 26.9 °F 35.6 °F 93% 30.26 in 7.0 mi NE 20.7 mph 25.3 mph N/A   Overcast
7:55 PM 37.4 °F 28.2 °F 35.6 °F 93% 30.27 in 10.0 mi NNE 16.1 mph 21.9 mph N/A   Overcast
8:15 PM 37.4 °F 28.2 °F 35.6 °F 93% 30.27 in 10.0 mi NNE 16.1 mph 25.3 mph N/A   Overcast
8:55 PM 37.4 °F 28.2 °F 35.6 °F 93% 30.29 in 10.0 mi NNE 16.1 mph - N/A   Overcast
9:15 PM 37.4 °F 27.5 °F 35.6 °F 93% 30.29 in 10.0 mi NNE 18.4 mph 25.3 mph N/A   Light Drizzle
9:35 PM 35.6 °F 25.2 °F 35.6 °F 100% 30.29 in 5.0 mi NNE 18.4 mph 25.3 mph N/A Rain Light Rain
9:55 PM 35.6 °F 26.6 °F 35.6 °F 100% 30.30 in 5.0 mi NNE 13.8 mph 23.0 mph N/A   Overcast
10:15 PM 35.6 °F 26.6 °F 35.6 °F 100% 30.29 in 5.0 mi NE 13.8 mph 20.7 mph N/A Rain Light Rain
10:35 PM 35.6 °F 26.6 °F 35.6 °F 100% 30.27 in 7.0 mi NNE 13.8 mph 20.7 mph N/A   Overcast
10:55 PM 35.6 °F 27.1 °F 35.6 °F 100% 30.27 in 5.0 mi NE 12.7 mph 19.6 mph N/A   Overcast
11:15 PM 35.6 °F 27.5 °F 35.6 °F 100% 30.27 in 5.0 mi NNE 11.5 mph 24.2 mph N/A   Overcast
11:35 PM 35.6 °F 25.5 °F 35.6 °F 100% 30.27 in 5.0 mi NNE 17.3 mph - N/A   Overcast
11:55 PM 35.6 °F 25.5 °F 35.6 °F 100% 30.26 in 7.0 mi NNE 17.3 mph - N/A   Overcast